Voltar ao catálogo

NOAA 16 DEB

AtivoSSO
NORAD 41069·DEBRIS·🇺🇸 United States

Lançado Sep 21, 2000 de Vandenberg Space Force Base

Loading…

Próximas Passagens (próximas 24 horas)

TLE

AtualizadoSource: Space-Track

Época: Sep 14, 2026, 14:17 UTC

1 41069U 00055AC  26257.59573080  .00001224  00000-0  35278-3 0  9996
2 41069  98.6088  11.3491 0106311 269.8006  89.1001 14.43374995565524

Acompanhe NOAA 16 DEB em tempo real com AllMySat

Download on the App Store